{"data":{"norad_id":59568,"intl_designator":"2024-076E","name":"STARLINK-31471","alt_names":[],"object_type":"PAYLOAD","status":"ACTIVE","operator":null,"country":"US","launch_date":"2024-04-23","launch_site_code":"AFETR","launch_vehicle":null,"mission":null,"orbit_class":"UNKNOWN","rcs_meters":null,"size_class":null,"mass_kg":null,"dimensions":null,"purposes":["comms"],"wikipedia_slug":null,"has_3d_model":false,"image_url":null,"decayed_at":null,"tle_current":{"epoch":"2026-05-25T02:55:53.818752Z","epoch_age_seconds":57694,"freshness":"FRESH","line1":"1 59568U 24076E   26145.12215068  .00000175  00000+0  15894-4 0  9998","line2":"2 59568  43.0015 297.2094 0000847 288.6526  71.4234 15.27579197118102","mean_motion":15.27579197,"eccentricity":8.47e-5,"inclination_deg":43.0015,"raan_deg":297.2094,"arg_perigee_deg":288.6526,"mean_anomaly_deg":71.4234,"bstar":1.5894e-5,"rev_number":11810,"period_min":94.266798266696,"perigee_km":482.47035784559,"apogee_km":483.63264317758,"semimajor_km":6861.1885005116,"source":"CELESTRAK","updated_at":"2026-05-25T13:38:18.985211Z"}}}